�������l�o���
Date,Time,MP-1(��Sv/h),MP-2(��Sv/h),MP-3(��Sv/h),MP-4(��Sv/h),MP-5(��Sv/h),MP-6(��Sv/h),MP-7(��Sv/h),����,����(m/s),���J
2016/11/17,00:00,0.411,0.237,0.422,0.386,0.366,0.199,0.172,���k��,2.4,��
2016/11/17,00:10,0.412,0.237,0.421,0.385,0.364,0.199,0.171,���쐼,3.4,��
2016/11/17,00:20,0.413,0.235,0.421,0.384,0.363,0.198,0.172,�쐼,4.9,��
2016/11/17,00:30,0.412,0.236,0.422,0.385,0.365,0.198,0.171,��쐼,4.6,��
2016/11/17,00:40,0.411,0.236,0.424,0.386,0.364,0.198,0.172,��쐼,4.3,��
2016/11/17,00:50,0.411,0.237,0.422,0.385,0.365,0.198,0.170,�쐼,4.2,��
2016/11/17,01:00,0.413,0.236,0.422,0.385,0.363,0.199,0.171,�쐼,5.0,��
2016/11/17,01:10,0.412,0.237,0.422,0.385,0.365,0.199,0.170,�쐼,4.8,��
2016/11/17,01:20,0.414,0.235,0.425,0.385,0.365,0.199,0.172,���쐼,4.6,��
2016/11/17,01:30,0.414,0.237,0.422,0.385,0.364,0.200,0.173,���쐼,4.9,��
2016/11/17,01:40,0.412,0.236,0.424,0.385,0.364,0.200,0.173,�쐼,4.2,��
2016/11/17,01:50,0.412,0.238,0.424,0.386,0.364,0.199,0.171,�쐼,2.9,��
2016/11/17,02:00,0.414,0.238,0.422,0.386,0.364,0.199,0.171,�쐼,2.9,��
2016/11/17,02:10,0.412,0.237,0.421,0.385,0.364,0.200,0.171,�쐼,3.7,��
2016/11/17,02:20,0.411,0.237,0.421,0.385,0.364,0.199,0.171,�쐼,4.5,��
2016/11/17,02:30,0.412,0.237,0.424,0.386,0.364,0.199,0.172,�쐼,5.2,��
2016/11/17,02:40,0.413,0.235,0.422,0.385,0.364,0.198,0.171,�쐼,5.1,��
2016/11/17,02:50,0.412,0.237,0.422,0.385,0.364,0.198,0.170,�쐼,5.8,��
2016/11/17,03:00,0.411,0.237,0.422,0.386,0.364,0.199,0.170,�쐼,6.7,��
2016/11/17,03:10,0.413,0.236,0.422,0.384,0.363,0.199,0.172,�쐼,6.6,��
2016/11/17,03:20,0.412,0.236,0.421,0.386,0.364,0.198,0.173,�쐼,6.0,��
2016/11/17,03:30,0.411,0.236,0.421,0.384,0.365,0.198,0.172,�쐼,4.3,��
2016/11/17,03:40,0.413,0.236,0.423,0.386,0.364,0.198,0.171,��쐼,4.5,��
2016/11/17,03:50,0.412,0.236,0.420,0.385,0.363,0.199,0.172,�쐼,4.7,��
2016/11/17,04:00,0.413,0.236,0.421,0.385,0.364,0.198,0.172,�쐼,5.1,��
2016/11/17,04:10,0.412,0.236,0.424,0.385,0.363,0.199,0.171,��쐼,5.7,��
2016/11/17,04:20,0.413,0.236,0.422,0.385,0.362,0.199,0.172,��쐼,6.1,��
2016/11/17,04:30,0.411,0.235,0.423,0.384,0.364,0.199,0.171,��쐼,7.1,��
2016/11/17,04:40,0.411,0.236,0.423,0.385,0.365,0.199,0.172,��쐼,6.5,��
2016/11/17,04:50,0.414,0.237,0.421,0.385,0.364,0.199,0.170,�쐼,4.2,��
2016/11/17,05:00,0.413,0.238,0.420,0.386,0.362,0.199,0.172,��쐼,4.8,��
2016/11/17,05:10,0.411,0.237,0.422,0.385,0.365,0.200,0.170,�쐼,4.5,��
2016/11/17,05:20,0.411,0.237,0.420,0.385,0.364,0.199,0.172,��쐼,6.2,��
2016/11/17,05:30,0.412,0.236,0.422,0.385,0.363,0.199,0.170,��쐼,7.1,��
2016/11/17,05:40,0.413,0.237,0.422,0.385,0.364,0.198,0.173,�쐼,6.6,��
2016/11/17,05:50,0.412,0.236,0.423,0.385,0.365,0.199,0.170,�쐼,5.7,��
2016/11/17,06:00,0.414,0.236,0.422,0.384,0.363,0.200,0.172,�쐼,4.5,��
2016/11/17,06:10,0.412,0.237,0.424,0.385,0.364,0.199,0.170,�쐼,4.0,��
2016/11/17,06:20,0.411,0.236,0.423,0.386,0.363,0.199,0.171,�쐼,3.8,��
2016/11/17,06:30,0.411,0.235,0.422,0.384,0.364,0.199,0.171,�쐼,3.0,��
2016/11/17,06:40,0.412,0.236,0.422,0.385,0.365,0.198,0.171,��,1.7,��
2016/11/17,06:50,0.413,0.236,0.422,0.386,0.364,0.200,0.170,�k,6.7,��
2016/11/17,07:00,0.413,0.237,0.423,0.387,0.364,0.199,0.172,�k,11.3,��
2016/11/17,07:10,0.413,0.237,0.422,0.385,0.365,0.199,0.171,�k,10.3,��
2016/11/17,07:20,0.413,0.237,0.422,0.385,0.366,0.199,0.171,�k,10.8,��
2016/11/17,07:30,0.412,0.237,0.423,0.385,0.362,0.199,0.171,�k,9.2,��
2016/11/17,07:40,0.414,0.237,0.421,0.384,0.363,0.199,0.172,�k,7.3,��
2016/11/17,07:50,0.413,0.237,0.424,0.386,0.364,0.199,0.172,�k�k��,3.6,��
2016/11/17,08:00,0.412,0.237,0.424,0.384,0.363,0.199,0.171,�k�k��,3.1,��
2016/11/17,08:10,0.414,0.237,0.421,0.385,0.363,0.199,0.171,�k,3.3,��
2016/11/17,08:20,0.413,0.237,0.422,0.384,0.365,0.198,0.170,�k,4.6,��
2016/11/17,08:30,0.411,0.236,0.422,0.384,0.364,0.199,0.170,�k,5.5,��
2016/11/17,08:40,0.414,0.237,0.420,0.385,0.362,0.200,0.171,�k,4.8,��
2016/11/17,08:50,0.412,0.236,0.424,0.383,0.366,0.199,0.170,�k,5.6,��
2016/11/17,09:00,0.411,0.237,0.420,0.384,0.364,0.199,0.171,�k,4.8,��
2016/11/17,09:10,0.414,0.235,0.421,0.381,0.363,0.200,0.171,�k,4.0,��
2016/11/17,09:20,0.412,0.236,0.422,0.383,0.365,0.198,0.171,�k�k��,6.2,��
2016/11/17,09:30,0.412,0.236,0.419,0.383,0.363,0.199,0.171,�k�k��,6.3,��
2016/11/17,09:40,0.413,0.236,0.422,0.384,0.362,0.199,0.170,�k�k��,6.6,��
2016/11/17,09:50,0.410,0.236,0.420,0.384,0.362,0.198,0.172,�k�k��,6.8,��
2016/11/17,10:00,0.412,0.237,0.421,0.382,0.364,0.198,0.170,�k�k��,6.4,��
2016/11/17,10:10,0.410,0.236,0.422,0.386,0.362,0.198,0.171,�k�k��,7.0,��
2016/11/17,10:20,0.412,0.236,0.420,0.383,0.364,0.199,0.171,�k�k��,7.6,��
2016/11/17,10:30,0.410,0.238,0.424,0.386,0.365,0.199,0.172,�k�k��,7.8,��
2016/11/17,10:40,0.413,0.234,0.422,0.384,0.363,0.200,0.170,�k�k��,8.0,��
2016/11/17,10:50,0.411,0.237,0.423,0.385,0.363,0.199,0.172,�k��,6.6,��
2016/11/17,11:00,0.411,0.235,0.420,0.384,0.364,0.199,0.172,�k�k��,6.9,��
2016/11/17,11:10,0.413,0.235,0.419,0.387,0.364,0.198,0.172,�k��,5.7,��
2016/11/17,11:20,0.411,0.233,0.421,0.384,0.362,0.199,0.171,�k��,5.7,��
2016/11/17,11:30,0.413,0.234,0.420,0.386,0.364,0.199,0.172,�k��,5.8,��
2016/11/17,11:40,0.412,0.236,0.421,0.383,0.363,0.199,0.171,�k��,6.3,��
2016/11/17,11:50,0.416,0.236,0.420,0.386,0.368,0.198,0.172,�k��,8.6,��
2016/11/17,12:00,0.410,0.237,0.420,0.383,0.363,0.199,0.170,�k��,8.4,��
2016/11/17,12:10,0.412,0.237,0.420,0.385,0.366,0.199,0.172,�k�k��,9.2,��
2016/11/17,12:20,0.411,0.237,0.421,0.383,0.363,0.200,0.170,�k,8.0,��
2016/11/17,12:30,0.417,0.237,0.420,0.388,0.363,0.199,0.172,�k�k��,8.4,��
2016/11/17,12:40,0.412,0.237,0.420,0.384,0.362,0.199,0.171,�k,7.5,��
2016/11/17,12:50,0.412,0.237,0.423,0.386,0.367,0.200,0.173,�k�k��,8.5,��
2016/11/17,13:00,0.413,0.237,0.422,0.384,0.363,0.199,0.171,�k�k��,6.4,��
2016/11/17,13:10,0.410,0.237,0.419,0.384,0.365,0.199,0.173,�k��,5.0,��
2016/11/17,13:20,0.416,0.237,0.423,0.384,0.363,0.200,0.172,�k��,4.9,��
2016/11/17,13:30,0.412,0.238,0.418,0.384,0.366,0.198,0.172,-,CALM,��
2016/11/17,13:40,0.413,0.236,0.418,0.385,0.362,0.200,0.170,�k��,1.2,��
2016/11/17,13:50,0.411,0.236,0.411,0.382,0.365,0.198,0.172,�k��,5.0,��
2016/11/17,14:00,0.412,0.236,0.416,0.386,0.363,0.199,0.172,�k�k��,3.8,��
2016/11/17,14:10,0.411,0.238,0.417,0.382,0.365,0.197,0.172,�k��,3.3,��
2016/11/17,14:20,0.414,0.237,0.423,0.386,0.365,0.198,0.170,�k��,6.1,��
2016/11/17,14:30,0.414,0.238,0.421,0.385,0.365,0.199,0.172,�k�k��,10.1,��
2016/11/17,14:40,0.413,0.237,0.421,0.388,0.360,0.198,0.170,�k�k��,7.4,��
2016/11/17,14:50,0.413,0.238,0.422,0.385,0.362,0.199,0.172,�k,5.8,��
2016/11/17,15:00,0.413,0.238,0.423,0.388,0.366,0.199,0.171,�k�k��,5.3,��
2016/11/17,15:10,0.412,0.238,0.425,0.386,0.365,0.198,0.172,�k��,2.5,��
2016/11/17,15:20,0.414,0.238,0.422,0.386,0.366,0.199,0.171,���k��,4.2,��
2016/11/17,15:30,0.414,0.237,0.423,0.386,0.365,0.198,0.172,�k,3.0,��
2016/11/17,15:40,0.415,0.239,0.422,0.386,0.364,0.199,0.171,�k,3.2,��
2016/11/17,15:50,0.412,0.237,0.426,0.387,0.366,0.199,0.172,�k,3.0,��
2016/11/17,16:00,0.414,0.238,0.422,0.386,0.364,0.199,0.171,�k��,0.8,��
2016/11/17,16:10,0.413,0.238,0.422,0.386,0.366,0.199,0.171,�k��,2.0,��
2016/11/17,16:20,0.413,0.237,0.424,0.387,0.365,0.199,0.171,�k��,4.3,��
2016/11/17,16:30,0.414,0.238,0.421,0.386,0.366,0.198,0.171,�k��,6.4,��
2016/11/17,16:40,0.415,0.238,0.423,0.388,0.364,0.199,0.172,�k�k��,8.7,��
2016/11/17,16:50,0.413,0.238,0.422,0.387,0.365,0.200,0.174,�k�k��,6.2,��
2016/11/17,17:00,0.416,0.237,0.423,0.386,0.366,0.197,0.172,�k,5.6,��
2016/11/17,17:10,0.414,0.238,0.424,0.387,0.366,0.199,0.173,�k,6.7,��
2016/11/17,17:20,0.414,0.238,0.422,0.387,0.367,0.198,0.172,�k,5.5,��
2016/11/17,17:30,0.415,0.238,0.424,0.385,0.365,0.199,0.172,�k,5.5,��
2016/11/17,17:40,0.414,0.238,0.423,0.388,0.365,0.200,0.172,�k�k��,3.6,��
2016/11/17,17:50,0.412,0.239,0.423,0.386,0.366,0.200,0.172,�k�k��,7.3,��
2016/11/17,18:00,0.415,0.238,0.425,0.387,0.366,0.200,0.172,�k,5.9,��
2016/11/17,18:10,0.415,0.238,0.424,0.388,0.365,0.200,0.172,�k�k��,4.0,��
2016/11/17,18:20,0.413,0.239,0.422,0.386,0.365,0.200,0.172,�k,2.8,��
2016/11/17,18:30,0.416,0.238,0.425,0.387,0.365,0.199,0.172,�k�k��,5.0,��
2016/11/17,18:40,0.414,0.238,0.422,0.387,0.366,0.199,0.173,�k�k��,5.0,��
2016/11/17,18:50,0.412,0.237,0.423,0.387,0.368,0.200,0.172,�k,7.3,��
2016/11/17,19:00,0.415,0.237,0.424,0.388,0.366,0.200,0.171,�k,4.5,��
2016/11/17,19:10,0.413,0.237,0.423,0.387,0.364,0.200,0.172,�k,6.1,��
2016/11/17,19:20,0.413,0.238,0.424,0.386,0.367,0.199,0.171,�k�k��,4.5,��
2016/11/17,19:30,0.415,0.239,0.424,0.389,0.365,0.199,0.172,�k,3.3,��
2016/11/17,19:40,0.413,0.238,0.422,0.387,0.366,0.199,0.171,�k�k��,3.9,��
2016/11/17,19:50,0.411,0.239,0.423,0.387,0.365,0.200,0.173,�k�k��,6.4,��
2016/11/17,20:00,0.413,0.238,0.425,0.388,0.366,0.199,0.172,�k�k��,5.0,��
2016/11/17,20:10,0.415,0.238,0.423,0.386,0.365,0.199,0.172,�k,2.9,��
2016/11/17,20:20,0.414,0.238,0.424,0.386,0.366,0.199,0.172,�k�k��,1.3,��
2016/11/17,20:30,0.413,0.238,0.425,0.387,0.365,0.199,0.172,�k��,1.1,��
2016/11/17,20:40,0.415,0.237,0.423,0.387,0.365,0.200,0.172,�k��,1.4,��
2016/11/17,20:50,0.416,0.238,0.424,0.387,0.365,0.199,0.172,�k��,1.4,��
2016/11/17,21:00,0.414,0.238,0.424,0.388,0.366,0.200,0.173,�k��,0.8,��
2016/11/17,21:10,0.417,0.237,0.422,0.387,0.363,0.199,0.172,�k��,0.9,��
2016/11/17,21:20,0.414,0.237,0.423,0.386,0.363,0.200,0.172,�k��,1.5,��
2016/11/17,21:30,0.413,0.238,0.425,0.387,0.367,0.199,0.172,���k��,1.7,��
2016/11/17,21:40,0.415,0.237,0.423,0.387,0.365,0.201,0.173,�k��,2.7,��
2016/11/17,21:50,0.414,0.238,0.424,0.386,0.364,0.198,0.171,���k��,2.2,��
2016/11/17,22:00,0.415,0.237,0.424,0.388,0.364,0.199,0.172,���k��,0.8,��
2016/11/17,22:10,0.413,0.238,0.423,0.387,0.365,0.199,0.172,��,1.2,��
2016/11/17,22:20,0.414,0.237,0.422,0.385,0.364,0.200,0.172,��,1.6,��
2016/11/17,22:30,0.414,0.237,0.425,0.388,0.366,0.200,0.172,��,2.1,��
2016/11/17,22:40,0.414,0.237,0.422,0.389,0.365,0.200,0.172,���k��,2.4,��
2016/11/17,22:50,0.414,0.238,0.423,0.387,0.365,0.201,0.172,���k��,2.2,��
2016/11/17,23:00,0.416,0.238,0.425,0.387,0.365,0.201,0.172,���k��,2.5,��
2016/11/17,23:10,0.412,0.238,0.424,0.387,0.365,0.199,0.172,�k��,2.2,��
2016/11/17,23:20,0.413,0.237,0.424,0.388,0.365,0.199,0.172,�k�k��,2.2,��
2016/11/17,23:30,0.413,0.237,0.422,0.387,0.364,0.200,0.172,�k�k��,2.8,��
2016/11/17,23:40,0.413,0.239,0.425,0.388,0.365,0.200,0.173,�k�k��,3.1,��
2016/11/17,23:50,0.412,0.238,0.423,0.388,0.365,0.200,0.173,�k�k��,2.3,��
